Weather History for Minot AFB, ND

Change the Weather History Date:

Tuesday, August 13, 2013

  Actual Average Record
Temperature  
Mean Temperature 63 °F -  
Max Temperature 77 °F 79 °F 95 °F (2003)
Min Temperature 49 °F 53 °F 41 °F (1997)
Degree Days  
Heating Degree Days 2    
Growing Degree Days 13 (Base 50)    
Moisture  
Dew Point 52 °F    
Average Humidity 76    
Maximum Humidity 100    
Minimum Humidity 39    
Precipitation  
Precipitation 0.00 in - - ()
Sea Level Pressure  
Sea Level Pressure 30.20 in    
Wind  
Wind Speed 7 mph (SE)    
Max Wind Speed 15 mph    
Max Gust Speed 29 mph    
Visibility 7 miles    
Events Fog    
Averages and records for this station are not official NWS values.
T = Trace of Precipitation, MM = Missing Value Source: NWS Daily Summary

Daily Weather History Graph

Daily Weather History Graph

Search for Another Location

Airport:

Trip Planner

Search our weather history database for the weather conditions in past years. The results will help you decide how hot, cold, wet, or windy it might be!

Date:

Astronomy

Aug. 13, 2013 Rise Set
Actual Time 6:36 AM CDT 9:02 PM CDT
Civil Twilight 6:02 AM CDT 9:37 PM CDT
Nautical Twilight 5:18 AM CDT 10:20 PM CDT
Astronomical Twilight 4:27 AM CDT 11:10 PM CDT
Moon 2:12 PM CDT (8/13) 11:59 PM CDT (8/13)
Length of Visible Light 15h 35m
Length of Day
14h 25m
Waxing Crescent, 42% of the Moon is Illuminated
Aug 13
Waxing Crescent
Aug 14
First Quarter
Aug 20
Full
Aug 28
Last Quarter
Sep 5
New

Hourly Weather History & Observations

Time (CDT) Temp. Dew Point Humidity Pressure Visibility Wind Dir Wind Speed Gust Speed Precip Events Conditions
12:58 AM 56.8 °F 54.0 °F 90% 30.20 in 10.0 mi SE 9.2 mph - N/A   Clear
1:58 AM 55.6 °F 53.4 °F 92% 30.20 in 10.0 mi SE 6.9 mph - N/A   Clear
2:58 AM 53.8 °F 52.5 °F 95% 30.21 in 10.0 mi ESE 5.8 mph - N/A   Clear
3:58 AM 53.2 °F 52.2 °F 96% 30.22 in 10.0 mi East 2.3 mph - N/A   Clear
4:43 AM 51.8 °F 50.0 °F 94% 30.21 in 9.0 mi ESE 4.6 mph - N/A   Clear
4:53 AM 51.8 °F 51.8 °F 100% 30.20 in 3.0 mi SE 4.6 mph - N/A   Clear
4:58 AM 51.8 °F 51.8 °F 100% 30.22 in 2.0 mi SE 4.6 mph - N/A   Clear
5:03 AM 51.8 °F 51.8 °F 100% 30.21 in 1.5 mi ESE 4.6 mph - N/A   Clear
5:08 AM 51.8 °F 51.8 °F 100% 30.20 in 1.0 mi ESE 4.6 mph - N/A   Clear
5:13 AM 51.8 °F 50.0 °F 94% 30.20 in 1.8 mi SE 5.8 mph - N/A   Clear
5:18 AM 51.8 °F 50.0 °F 94% 30.20 in 1.2 mi SE 4.6 mph - N/A   Clear
5:23 AM 50.0 °F 50.0 °F 100% 30.20 in 1.0 mi SE 3.5 mph - N/A   Clear
5:33 AM 51.8 °F 51.8 °F 100% 30.20 in 0.5 mi ESE 4.6 mph - N/A Fog Fog
5:58 AM 50.7 °F 50.5 °F 99% 30.22 in 6.0 mi SSE 3.5 mph - N/A   Clear
6:28 AM 51.8 °F 50.0 °F 94% 30.21 in 4.0 mi ESE 4.6 mph - N/A   Clear
6:58 AM 49.3 °F 49.1 °F 99% 30.24 in 4.0 mi SSE 3.5 mph - N/A   Clear
7:43 AM 51.8 °F 50.0 °F 94% 30.22 in 1.8 mi ESE 3.5 mph - N/A   Clear
7:48 AM 51.8 °F 51.8 °F 100% 30.23 in 4.0 mi ESE 1.2 mph - N/A   Clear
7:56 AM 53.6 °F 51.8 °F 94% 30.24 in 6.0 mi ESE 2.3 mph - N/A   Clear
8:58 AM 58.3 °F 54.1 °F 86% 30.25 in 10.0 mi SE 5.8 mph - N/A   Clear
9:58 AM 63.7 °F 52.3 °F 67% 30.24 in 10.0 mi SE 6.9 mph - N/A   Clear
10:58 AM 69.1 °F 50.0 °F 51% 30.23 in 10.0 mi SSE 13.8 mph - N/A   Clear
11:58 AM 71.8 °F 51.1 °F 48% 30.22 in 10.0 mi SE 12.7 mph - N/A   Clear
12:58 PM 74.3 °F 52.7 °F 47% 30.22 in 10.0 mi SE 15.0 mph - N/A   Clear
1:18 PM 75.2 °F 51.8 °F 44% 30.20 in 10.0 mi South 12.7 mph - N/A   Partly Cloudy
1:58 PM 75.6 °F 52.3 °F 44% 30.21 in 10.0 mi SE 9.2 mph 18.4 mph N/A   Clear
2:58 PM 75.6 °F 51.1 °F 42% 30.21 in 10.0 mi SSE 8.1 mph - N/A   Clear
3:58 PM 76.8 °F 51.4 °F 41% 30.19 in 10.0 mi SE 10.4 mph - N/A   Clear
4:58 PM 77.4 °F 51.3 °F 40% 30.19 in 10.0 mi SSW 4.6 mph - N/A   Partly Cloudy
5:14 PM 77.0 °F 50.0 °F 39% 30.16 in 10.0 mi SE 15.0 mph 28.8 mph N/A   Partly Cloudy
5:58 PM 74.8 °F 51.1 °F 43% 30.17 in 10.0 mi ESE 13.8 mph - N/A   Scattered Clouds
6:58 PM 72.7 °F 52.0 °F 48% 30.16 in 10.0 mi ESE 12.7 mph - N/A   Partly Cloudy
7:58 PM 69.4 °F 52.5 °F 55% 30.16 in 10.0 mi ESE 10.4 mph - N/A   Clear
8:58 PM 65.7 °F 52.5 °F 62% 30.16 in 10.0 mi ESE 10.4 mph - N/A   Clear
9:58 PM 61.9 °F 52.9 °F 72% 30.15 in 10.0 mi ESE 10.4 mph - N/A   Clear
10:58 PM 58.1 °F 52.2 °F 81% 30.17 in 10.0 mi SSE 6.9 mph - N/A   Clear
11:58 PM 56.7 °F 52.0 °F 84% 30.17 in 10.0 mi SSE 4.6 mph - N/A   Clear